When you browse on this site, cookies collect data to enhance your experience and personalize the content and advertising you see.
Visit our Privacy Policy to learn more. By continuing to use the site, you agree to this use of cookies and data.
  • En España
  • Lista de países
  • Para 7 días
  • Temperatura del agua
  • El tiempo en el mapa
  • Informadores
  • user-avatar
    Iniciar sesión

    Tiempo cada hora Somovka

    Hoy, 20 Agosto, Martes

    Tiempo Temperatura Precipitaciones Viento Presión Humedad
    00:00 +16°C° 0 mm 0 mps 748 mmHg 87%
    01:00 +16°C° 0 mm 0 mps 748 mmHg 87%
    02:00 +15°C° 0 mm 0 mps 748 mmHg 87%
    03:00 +15°C° 0 mm 0 mps 748 mmHg 88%
    04:00 +15°C° 0 mm 0 mps 748 mmHg 88%
    05:00 +15°C° 0 mm 0 mps 749 mmHg 88%
    06:00 +17°C° 0 mm 0 mps 749 mmHg 82%
    07:00 +19°C° 0 mm 0 mps 749 mmHg 77%
    08:00 +20°C° 0 mm 0 mps 749 mmHg 71%
    09:00 +22°C° 0 mm 0 mps 749 mmHg 65%
    10:00 +25°C° 0 mm 1 mps 749 mmHg 60%
    11:00 +26°C° 0 mm 1 mps 749 mmHg 54%
    12:00 +26°C° 0 mm 1 mps 749 mmHg 53%
    13:00 +27°C° 0 mm 1 mps 749 mmHg 51%
    14:00 +27°C° 0 mm 1 mps 749 mmHg 49%
    15:00 +27°C° 0 mm 1 mps 749 mmHg 54%
    16:00 +27°C° 0 mm 1 mps 749 mmHg 58%
    17:00 +27°C° 0 mm 1 mps 749 mmHg 62%
    18:00 +25°C° 0 mm 1 mps 749 mmHg 65%
    19:00 +21°C° 0 mm 0 mps 749 mmHg 69%
    20:00 +19°C° 0 mm 0 mps 749 mmHg 72%
    21:00 +19°C° 0 mm 0 mps 749 mmHg 74%
    22:00 +19°C° 0 mm 0 mps 749 mmHg 75%
    23:00 +18°C° 0 mm 0 mps 749 mmHg 76%

    Mañana, 21 Agosto, Miércoles

    Tiempo Temperatura Precipitaciones Viento Presión Humedad
    00:00 +18°C° 0 mm 0 mps 750 mmHg 77%
    01:00 +18°C° 0 mm 0 mps 750 mmHg 79%
    02:00 +19°C° 0 mm 1 mps 750 mmHg 80%
    03:00 +19°C° 0 mm 1 mps 750 mmHg 81%
    04:00 +17°C° 0 mm 0 mps 750 mmHg 82%
    05:00 +17°C° 0 mm 0 mps 750 mmHg 83%
    06:00 +21°C° 0 mm 1 mps 750 mmHg 78%
    07:00 +22°C° 0 mm 1 mps 750 mmHg 73%
    08:00 +24°C° 0 mm 1 mps 750 mmHg 68%
    09:00 +25°C° 0 mm 1 mps 750 mmHg 65%
    10:00 +27°C° 0 mm 1 mps 750 mmHg 61%
    11:00 +26°C° 0 mm 0 mps 750 mmHg 57%
    12:00 +28°C° 0 mm 1 mps 750 mmHg 56%
    13:00 +29°C° 0 mm 1 mps 750 mmHg 54%
    14:00 +29°C° 0 mm 1 mps 750 mmHg 53%
    15:00 +29°C° 0 mm 1 mps 749 mmHg 56%
    16:00 +28°C° 0 mm 1 mps 749 mmHg 60%
    17:00 +28°C° 0 mm 1 mps 749 mmHg 63%
    18:00 +27°C° 0 mm 1 mps 748 mmHg 67%
    19:00 +25°C° 0 mm 1 mps 748 mmHg 71%
    20:00 +23°C° 0 mm 2 mps 748 mmHg 74%
    21:00 +23°C° 0 mm 2 mps 749 mmHg 76%
    22:00 +21°C° 0 mm 2 mps 749 mmHg 78%
    23:00 +21°C° 0 mm 2 mps 749 mmHg 79%

    Pasado mañana, 22 Agosto, Jueves

    Tiempo Temperatura Precipitaciones Viento Presión Humedad
    00:00 +20°C° 0 mm 2 mps 748 mmHg 80%
    01:00 +21°C° 0 mm 1 mps 748 mmHg 81%
    02:00 +20°C° 0 mm 1 mps 748 mmHg 83%
    03:00 +20°C° 0 mm 1 mps 748 mmHg 83%
    04:00 +20°C° 0 mm 1 mps 748 mmHg 84%
    05:00 +20°C° 0 mm 1 mps 747 mmHg 85%
    06:00 +21°C° 0 mm 1 mps 747 mmHg 79%
    07:00 +23°C° 0 mm 1 mps 748 mmHg 74%
    08:00 +24°C° 0 mm 1 mps 748 mmHg 69%
    09:00 +26°C° 0 mm 1 mps 748 mmHg 65%
    10:00 +25°C° 0 mm 0 mps 747 mmHg 62%
    11:00 +26°C° 0 mm 0 mps 747 mmHg 58%
    12:00 +28°C° 0 mm 1 mps 747 mmHg 57%
    13:00 +29°C° 0 mm 1 mps 747 mmHg 56%
    14:00 +29°C° 0 mm 1 mps 747 mmHg 54%
    15:00 +28°C° 0.4 mm 2 mps 747 mmHg 60%
    16:00 +27°C° 0.4 mm 2 mps 747 mmHg 66%
    17:00 +27°C° 0.4 mm 3 mps 747 mmHg 71%
    18:00 +25°C° 0.5 mm 3 mps 747 mmHg 78%
    19:00 +22°C° 0.5 mm 4 mps 748 mmHg 84%
    20:00 +20°C° 0.5 mm 5 mps 748 mmHg 91%
    21:00 +20°C° 0 mm 5 mps 748 mmHg 92%
    22:00 +19°C° 0 mm 4 mps 748 mmHg 92%
    23:00 +18°C° 0 mm 4 mps 748 mmHg 93%

    23 Agosto, Viernes

    Tiempo Temperatura Precipitaciones Viento Presión Humedad
    00:00 +18°C° 0 mm 4 mps 749 mmHg 92%
    01:00 +17°C° 0 mm 4 mps 749 mmHg 92%
    02:00 +17°C° 0 mm 4 mps 749 mmHg 92%
    03:00 +15°C° 0.1 mm 4 mps 749 mmHg 92%
    04:00 +15°C° 0.1 mm 4 mps 749 mmHg 92%
    05:00 +15°C° 0.1 mm 4 mps 749 mmHg 92%
    06:00 +17°C° 0.1 mm 4 mps 749 mmHg 89%
    07:00 +17°C° 0.1 mm 4 mps 749 mmHg 85%
    08:00 +17°C° 0.1 mm 5 mps 750 mmHg 82%
    09:00 +19°C° 0 mm 5 mps 750 mmHg 77%
    10:00 +20°C° 0 mm 5 mps 750 mmHg 73%
    11:00 +21°C° 0 mm 5 mps 750 mmHg 68%
    12:00 +22°C° 0 mm 5 mps 750 mmHg 66%
    13:00 +22°C° 0 mm 4 mps 750 mmHg 64%
    14:00 +23°C° 0 mm 4 mps 750 mmHg 62%
    15:00 +22°C° 0 mm 4 mps 750 mmHg 65%
    16:00 +22°C° 0 mm 4 mps 750 mmHg 67%
    17:00 +21°C° 0 mm 3 mps 750 mmHg 70%
    18:00 +20°C° 0 mm 3 mps 750 mmHg 73%
    19:00 +19°C° 0 mm 3 mps 750 mmHg 76%
    20:00 +17°C° 0 mm 2 mps 750 mmHg 79%
    21:00 +17°C° 0 mm 2 mps 750 mmHg 80%
    22:00 +16°C° 0 mm 2 mps 750 mmHg 81%
    23:00 +15°C° 0 mm 2 mps 750 mmHg 82%

    24 Agosto, Sábado

    Tiempo Temperatura Precipitaciones Viento Presión Humedad
    00:00 +15°C° 0 mm 2 mps 751 mmHg 83%
    01:00 +15°C° 0 mm 2 mps 751 mmHg 84%
    02:00 +14°C° 0 mm 2 mps 751 mmHg 85%
    03:00 +14°C° 0 mm 2 mps 751 mmHg 85%
    04:00 +13°C° 0 mm 2 mps 751 mmHg 85%
    05:00 +12°C° 0 mm 3 mps 751 mmHg 85%
    06:00 +14°C° 0 mm 3 mps 751 mmHg 81%
    07:00 +16°C° 0 mm 3 mps 751 mmHg 77%
    08:00 +18°C° 0 mm 3 mps 752 mmHg 73%
    09:00 +19°C° 0 mm 3 mps 752 mmHg 66%
    10:00 +20°C° 0 mm 3 mps 752 mmHg 60%
    11:00 +21°C° 0 mm 3 mps 752 mmHg 53%
    12:00 +22°C° 0 mm 3 mps 752 mmHg 51%
    13:00 +22°C° 0 mm 3 mps 752 mmHg 49%
    14:00 +24°C° 0 mm 2 mps 751 mmHg 47%
    15:00 +23°C° 0 mm 2 mps 751 mmHg 51%
    16:00 +23°C° 0 mm 2 mps 751 mmHg 55%
    17:00 +21°C° 0 mm 2 mps 751 mmHg 59%
    18:00 +21°C° 0 mm 1 mps 751 mmHg 62%
    19:00 +19°C° 0 mm 1 mps 751 mmHg 65%
    20:00 +15°C° 0 mm 0 mps 751 mmHg 67%
    21:00 +16°C° 0 mm 1 mps 751 mmHg 68%
    22:00 +16°C° 0 mm 1 mps 751 mmHg 68%
    23:00 +15°C° 0 mm 1 mps 751 mmHg 69%

    25 Agosto, Domingo

    Tiempo Temperatura Precipitaciones Viento Presión Humedad
    00:00 +15°C° 0 mm 1 mps 751 mmHg 70%
    01:00 +15°C° 0 mm 1 mps 751 mmHg 71%
    02:00 +14°C° 0 mm 2 mps 751 mmHg 72%
    03:00 +14°C° 0 mm 2 mps 751 mmHg 73%
    04:00 +14°C° 0 mm 2 mps 751 mmHg 75%
    05:00 +14°C° 0 mm 2 mps 751 mmHg 77%
    06:00 +15°C° 0 mm 2 mps 751 mmHg 74%
    07:00 +17°C° 0 mm 2 mps 751 mmHg 72%
    08:00 +18°C° 0 mm 2 mps 751 mmHg 69%
    09:00 +20°C° 0 mm 3 mps 751 mmHg 66%
    10:00 +21°C° 0 mm 3 mps 750 mmHg 62%
    11:00 +22°C° 0 mm 3 mps 750 mmHg 58%
    12:00 +24°C° 0 mm 3 mps 750 mmHg 57%
    13:00 +23°C° 0 mm 4 mps 750 mmHg 56%
    14:00 +23°C° 0 mm 4 mps 749 mmHg 55%
    15:00 +24°C° 0 mm 3 mps 749 mmHg 58%
    16:00 +22°C° 0 mm 3 mps 749 mmHg 62%
    17:00 +23°C° 0 mm 2 mps 748 mmHg 65%
    18:00 +20°C° 0 mm 2 mps 748 mmHg 69%
    19:00 +19°C° 0 mm 2 mps 749 mmHg 73%
    20:00 +17°C° 0 mm 2 mps 749 mmHg 77%
    21:00 +17°C° 0 mm 2 mps 749 mmHg 80%
    22:00 +16°C° 0 mm 2 mps 749 mmHg 82%
    23:00 +16°C° 0 mm 2 mps 749 mmHg 85%
    Mostrar más